Regional Weather Roundup
Issued by NWS

Home | Current Version | Previous Version | Graphics & Text | Print | Product List | Glossary On
Versions: 1 2 3 4 5 6 7 8 9 10 11 12 13 14 15 16 17 18 19 20 21 22 23 24 25 26 27 28 29 30 31 32 33 34 35 36 37 38 39 40 41 42 43 44 45 46 47 48 49 50
000
ASUS43 KMKX 030518
RWRWI

WISCONSIN REGIONAL WEATHER ROUNDUP
NATIONAL WEATHER SERVICE MILWAUKEE/SULLIVAN WI
1200 AM CDT WED JUN 03 2015

NOTE: "FAIR" INDICATES FEW OR NO CLOUDS BELOW 12,000 FEET WITH NO
SIGNIFICANT WEATHER AND/OR OBSTRUCTIONS TO VISIBILITY.

WIZ001-002-006>008-014>016-023>028-030600-
NORTHWEST WISCONSIN

CITY           SKY/WX    TMP DP  RH WIND       PRES   REMARKS
SUPERIOR ARPT  MOCLDY    44  40  86 N3        29.93S
ASHLAND        CLOUDY    62  48  60 S5        29.94S
HAYWARD        PTCLDY    63  48  58 S8        29.95F
SIREN          PTCLDY    63  52  67 S7        29.93S
CUMBERLAND     PTCLDY    59  50  72 SE8       29.95F
RICE LAKE      PTCLDY    62  50  65 SE9       29.97F
CHETEK         PTCLDY    62  51  66 SE9       29.97S
LADYSMITH      MOCLDY    61  49  62 SE5       30.00F
EAU CLAIRE     PTCLDY    64  49  57 S8        29.96F
MENOMONIE      PTCLDY    61  51  70 SE6       29.96F
NEW RICHMOND   CLEAR     62  51  66 SE9       29.94F
OSCEOLA        CLEAR     64  52  64 SE8       29.96R
$$

WIZ003>005-009-010-017-018-030600-
NORTH CENTRAL WISCONSIN

CITY           SKY/WX    TMP DP  RH WIND       PRES   REMARKS
MANITOWISH WTR CLOUDY    56  43  60 S6        30.01S
ARBOR VITAE    MOCLDY    59  43  55 S8        30.02S
WOODRUFF       MOCLDY    59  43  55 S8        30.02S
RHINELANDER    PTCLDY    57  40  52 S7        30.04S
EAGLE RIVER    PTCLDY    56  40  55 S5        30.03S
LAND O LAKES   PTCLDY    57  42  56 S5        30.03S
PHILLIPS       PTCLDY    60  44  55 S7        30.00S
TOMAHAWK       PTCLDY    55  44  64 SE3       30.03F
MEDFORD        MOCLDY    56  46  67 S6        30.02S
MERRILL        PTCLDY   N/A N/A N/A SE5       30.05S
$$

WIZ029-030-035-036-043>047-030600-
CENTRAL WISCONSIN

CITY           SKY/WX    TMP DP  RH WIND       PRES   REMARKS
WAUSAU         PTCLDY    57  42  57 SE8       30.03R
MOSINEE        CLEAR     52  43  71 SE6       30.05S
MARSHFIELD     CLEAR     57  44  62 S5        30.03R
STEVENS POINT  CLEAR     55  45  67 SE7       30.05S
WAUPACA        PTCLDY    55  47  75 SE3       30.06S
WAUTOMA        CLEAR     57  48  72 SE7       30.06S
WISC RAPIDS    CLEAR     57  44  62 SE7       30.05R
CAMP DOUGLAS   PTCLDY    48  48 100 E5        30.02S
$$

WIZ011>013-019>022-031-037>040-048>050-030600-
NORTHEAST WISCONSIN

CITY           SKY/WX    TMP DP  RH WIND       PRES   REMARKS
ANTIGO         PTCLDY    50  43  77 S8        30.05F
SHAWANO        PTCLDY    56  39  53 CALM      30.06S
OCONTO         CLEAR     51  39  63 S5        30.06S
STURGEON BAY   CLEAR     46  37  71 S9        30.11R
GREEN BAY      CLEAR     51  39  63 S6        30.07S
MANITOWOC      CLEAR     47  45  93 SE6       30.10S
APPLETON       PTCLDY    54  36  50 SE6       30.07F
CLINTONVILLE   PTCLDY    50  43  76 CALM      30.06S
OSHKOSH        PTCLDY    50  40  68 S7        30.06S
$$

WIZ032>034-041-042-053>061-030600-
SOUTHWEST WISCONSIN

CITY           SKY/WX    TMP DP  RH WIND       PRES   REMARKS
LA CROSSE      PTCLDY    62  49  62 SE7       29.99R
SPARTA         PTCLDY    52  46  80 CALM      30.03R
VIROQUA        PTCLDY    60  47  63 SE9       30.02S
BOSCOBEL       MOCLDY    54  51  90 CALM      30.02S
PRAIRIE DU CHI MOCLDY    59  48  67 CALM      30.01R
PLATTEVILLE    MOCLDY    60  49  66 SE8       30.03S
$$

WIZ056-057-062-063-064-067-068-030600-
SOUTH CENTRAL WISCONSIN

CITY           SKY/WX    TMP DP  RH WIND       PRES   REMARKS
REEDSBURG      PTCLDY    55  48  79 CALM      30.04S
BARABOO/DELLS  PTCLDY    54  46  74 SE3       30.05R
LONE ROCK      MOCLDY    56  48  74 E3        30.04R
MINERAL POINT  MOCLDY    61  46  59 SE3       30.04F
MADISON        PTCLDY    61  44  53 S8        30.06R
MIDDLETON      PTCLDY    61  44  53 S7        30.06S
WATERTOWN      PTCLDY    53  44  72 CALM      30.07S
MONROE         MOCLDY    59  46  63 SE5       30.06S
JANESVILLE     PTCLDY    57  46  67 SE3       30.07R
$$

WIZ051-052-058>065-066-070>072-030600-
SOUTHEAST WISCONSIN

CITY           SKY/WX    TMP DP  RH WIND       PRES   REMARKS
MILWAUKEE      PTCLDY    50  44  80 SE5       30.10S
WAUKESHA       CLEAR     50  43  76 CALM      30.10S
MILWAUKEE/TIMM CLEAR     52  41  66 CALM      30.10S
RACINE         CLEAR     51  42  71 S6        30.11S
BURLINGTON     CLEAR     48  42  82 CALM      30.09S
KENOSHA        CLEAR     51  43  74 SE6       30.10R
FOND DU LAC    PTCLDY    51  43  74 S7        30.07S
SHEBOYGAN      CLEAR     46  44  93 CALM      30.09S
WEST BEND      CLEAR     46  43  87 CALM      30.09S
JUNEAU         PTCLDY    53  43  67 SE3       30.09R
$$

LSZ147-162-030600-
LAKE SUPERIOR

STATION/POSITION TIME  TEMP    WIND        PRES    WAVE
                       AIR SEA DIR/SP/G            HT/PER
                 (UTC) (F)     (DEG/KT/KT) (MB)    (FT/S)
W MID LAKE BUOY  0450   47 37  170/ 12/ 12   N/A     0
DEVILS ISLAND    0500   51     140/  7/  8   N/A
PORT WING        0400   43      50/  2/  5   N/A
SAXON HARBOR     0400   62     200/  2/  5   N/A
$$

LMZ867-665-643>646-030600-
LAKE MICHIGAN

STATION/POSITION TIME  TEMP    WIND        PRES    WAVE
                       AIR SEA DIR/SP/G            HT/PER
                 (UTC) (F)     (DEG/KT/KT) (MB)    (FT/S)
CHAMBERS ISLAND  0400   53     130/  5/  9   N/A
N MID LAKE BUOY  0450   41 37  150/  8/  8   N/A     0
NORTHPORT PIER   0400   49     170/  5/  9   N/A
SISTER BAY       0348   48     160/  9/ 11   N/A
ALGOMA LAKESHORE 0439          180/ 10/ 12   N/A
KEWAUNEE LAKESHO 0400   44     170/  9/ 11   N/A
SHEBOYGAN LAKESH 0500   47     180/  7/  8   N/A
PORT WASHINGTON  0340   50      CALM  /  2   N/A
ATWATER BUOY     0400   48 48  160/  2/  2   N/A
MILWAUKEE LAKESH 0400   50     180/  1/  1   N/A
S MID LAKE BUOY  0450   43 38  120/  8/ 10   N/A     0
KENOSHA   LAKESH 0500   52     170/  9/ 10   N/A
$$

TC  - TEMPERATURE IN CELSIUS
VSB - VISIBILITY IN STATUTE MILES
WCI - WIND CHILL INDEX
HX  - HEAT INDEX




USA.gov is the U.S. government's official web portal to all federal, state and local government web resources and services.